EW1090 Weather Reports


Display with metric or nautical units.
time (UTC)temp
F
wind
direction
speed
MPH
gust
MPH
rain 1hr
in
rain 24hr
in
rain mn
in
humidity
%
barometer
mb
20260507101334 78 196 2.0 5.0 0.00 0.00 0.00 84 1011.0
20260507100810 78 182 1.0 4.0 0.00 0.00 0.00 84 1011.1
20260507100308 78 200 0.0 5.0 0.00 0.00 0.00 84 1011.2
20260507095805 78 200 0.0 5.0 0.00 0.00 0.00 84 1011.2
20260507095322 78 197 0.0 4.0 0.00 0.00 0.00 84 1011.0
20260507094820 78 166 1.0 3.0 0.00 0.00 0.00 84 1010.9
20260507094316 78 225 0.0 3.0 0.00 0.00 0.00 84 1010.9
20260507093337 78 190 0.0 3.0 0.00 0.00 0.00 84 1010.9
20260507092812 78 188 1.0 4.0 0.00 0.00 0.00 84 1011.0
20260507092307 78 220 1.0 4.0 0.00 0.00 0.00 84 1010.9
20260507091819 78 295 0.0 1.0 0.00 0.00 0.00 84 1010.9
20260507091315 78 279 0.0 5.0 0.00 0.00 0.00 84 1010.9
20260507090810 78 279 1.0 6.0 0.00 0.00 0.00 84 1010.9
20260507090306 78 228 1.0 4.0 0.00 0.00 0.00 84 1011.0
20260507085822 78 287 1.0 4.0 0.00 0.00 0.00 84 1010.9
20260507085338 78 160 0.0 3.0 0.00 0.00 0.00 84 1010.9
20260507084833 78 209 2.0 3.0 0.00 0.00 0.00 84 1010.9
20260507084309 78 166 0.0 7.0 0.00 0.00 0.00 84 1010.8
20260507083805 78 207 2.0 7.0 0.00 0.00 0.00 84 1010.8
20260507083323 78 186 1.0 5.0 0.00 0.00 0.00 84 1010.8
20260507082840 78 178 1.0 5.0 0.00 0.00 0.00 84 1010.7
20260507082313 78 42 1.0 5.0 0.00 0.00 0.00 84 1010.9
20260507081810 78 313 0.0 5.0 0.00 0.00 0.00 84 1010.9
20260507081307 78 188 2.0 5.0 0.00 0.00 0.00 84 1010.9
20260507080823 78 232 1.0 3.0 0.00 0.00 0.00 84 1010.9
20260507080320 78 275 1.0 4.0 0.00 0.00 0.00 84 1011.0
20260507075837 78 286 2.0 6.0 0.00 0.00 0.00 84 1011.1
20260507075312 78 313 2.0 6.0 0.00 0.00 0.00 84 1011.0
20260507074821 78 248 1.0 6.0 0.00 0.00 0.00 84 1011.1
20260507074317 78 236 0.0 3.0 0.00 0.00 0.00 84 1011.0
20260507073812 78 223 0.0 4.0 0.00 0.00 0.00 84 1011.2
20260507073329 78 159 0.0 4.0 0.00 0.00 0.00 84 1011.1
20260507072805 78 198 2.0 6.0 0.00 0.00 0.00 84 1011.2
20260507071815 78 259 1.0 8.0 0.00 0.00 0.00 84 1011.1
20260507071313 78 224 1.0 8.0 0.00 0.00 0.00 84 1011.1
20260507070808 78 203 3.0 8.0 0.00 0.00 0.00 84 1011.1
20260507070305 78 212 2.0 7.0 0.00 0.00 0.00 84 1011.0
20260507065819 78 216 3.0 8.0 0.00 0.00 0.00 84 1011.0
20260507065315 78 208 2.0 8.0 0.00 0.00 0.00 84 1011.1
20260507064811 78 258 2.0 6.0 0.00 0.00 0.00 84 1011.1
20260507064308 78 186 2.0 7.0 0.00 0.00 0.00 84 1011.1
20260507063824 78 213 1.0 7.0 0.00 0.00 0.00 84 1011.1
20260507063321 78 203 2.0 8.0 0.00 0.00 0.00 84 1011.1
20260507062816 78 165 0.0 7.0 0.00 0.00 0.00 84 1011.2
20260507062313 78 209 2.0 8.0 0.00 0.00 0.00 84 1011.3
20260507061829 79 111 1.0 5.0 0.00 0.00 0.00 84 1011.1
20260507061325 79 169 1.0 10.0 0.00 0.00 0.00 83 1011.1
20260507060820 79 254 2.0 10.0 0.00 0.00 0.00 83 1011.1
20260507060317 79 244 2.0 8.0 0.00 0.00 0.00 84 1011.2
20260507055814 79 211 1.0 7.0 0.00 0.00 0.00 84 1011.2
20260507055310 79 225 2.0 8.0 0.00 0.00 0.00 84 1011.2
20260507054806 79 161 2.0 9.0 0.00 0.00 0.00 83 1011.2
20260507054323 79 200 3.0 9.0 0.00 0.00 0.00 83 1011.3
20260507053839 79 158 3.0 9.0 0.00 0.00 0.00 83 1011.4
20260507053314 79 275 3.0 7.0 0.00 0.00 0.00 83 1011.2
20260507052811 79 210 3.0 7.0 0.00 0.00 0.00 83 1011.2
20260507052328 79 192 1.0 6.0 0.00 0.00 0.00 83 1011.2
20260507051844 79 198 1.0 8.0 0.00 0.00 0.00 83 1011.2
20260507051318 79 187 2.0 8.0 0.00 0.00 0.00 83 1011.2
20260507050814 79 209 2.0 7.0 0.00 0.00 0.00 83 1011.2
20260507050330 79 210 1.0 8.0 0.00 0.00 0.00 83 1011.2
20260507045820 79 186 3.0 9.0 0.00 0.00 0.00 83 1011.1
20260507045314 79 251 3.0 11.0 0.00 0.00 0.00 83 1011.0
20260507044811 79 208 3.0 12.0 0.00 0.00 0.00 83 1011.0
20260507044308 79 241 4.0 12.0 0.00 0.00 0.00 83 1011.0
20260507043804 79 260 3.0 7.0 0.00 0.00 0.00 83 1011.1
20260507043319 79 246 4.0 10.0 0.00 0.00 0.00 83 1011.1
20260507042810 79 306 4.0 16.0 0.00 0.00 0.00 83 1011.1
20260507042327 79 223 5.0 16.0 0.00 0.00 0.00 83 1011.0
20260507041320 79 178 4.0 11.0 0.00 0.00 0.00 82 1011.0
20260507040831 79 239 3.0 9.0 0.00 0.00 0.00 82 1010.9
20260507040308 79 283 3.0 9.0 0.00 0.00 0.00 82 1011.0
20260507035804 79 119 4.0 9.0 0.00 0.00 0.00 82 1011.1
20260507035321 79 167 4.0 9.0 0.00 0.00 0.00 82 1011.2
20260507034817 79 146 1.0 7.0 0.00 0.00 0.00 82 1011.2
20260507034312 79 171 2.0 7.0 0.00 0.00 0.00 83 1011.3
20260507033823 79 225 2.0 7.0 0.00 0.00 0.00 82 1011.2
20260507033318 79 231 1.0 7.0 0.00 0.00 0.00 83 1011.1
20260507032813 79 248 2.0 7.0 0.00 0.00 0.00 82 1011.1
20260507032310 79 242 3.0 7.0 0.00 0.00 0.00 82 1011.1
20260507031827 79 211 1.0 7.0 0.00 0.00 0.00 82 1011.2
20260507031322 79 211 1.0 8.0 0.00 0.00 0.00 82 1011.2
20260507030818 79 203 2.0 8.0 0.00 0.00 0.00 82 1011.3
20260507030314 79 157 3.0 7.0 0.00 0.00 0.00 82 1011.2
20260507025810 79 200 2.0 8.0 0.00 0.00 0.00 82 1011.3
20260507025307 79 63 1.0 8.0 0.00 0.00 0.00 82 1011.3
20260507024804 79 202 2.0 9.0 0.00 0.00 0.00 82 1011.2
20260507024314 79 251 4.0 9.0 0.00 0.00 0.00 82 1011.4
20260507023810 79 154 1.0 10.0 0.00 0.00 0.00 82 1011.4
20260507023305 79 259 3.0 10.0 0.00 0.00 0.00 82 1011.4
20260507022824 79 180 4.0 9.0 0.00 0.00 0.00 82 1011.4
20260507022317 80 242 3.0 10.0 0.00 0.00 0.00 82 1011.3
20260507021814 80 170 4.0 10.0 0.00 0.00 0.00 82 1011.3
20260507021310 80 197 2.0 9.0 0.00 0.00 0.00 82 1011.3
20260507020826 80 252 2.0 9.0 0.00 0.00 0.00 82 1011.3
20260507020343 80 194 2.0 9.0 0.00 0.00 0.00 82 1011.1
20260507015838 80 175 2.0 7.0 0.00 0.00 0.00 82 1011.0
20260507015312 80 257 1.0 7.0 0.00 0.00 0.00 81 1010.9
20260507014808 80 242 1.0 6.0 0.00 0.00 0.00 81 1010.8
20260507014304 80 209 1.0 7.0 0.00 0.00 0.00 81 1010.8
20260507013820 80 115 1.0 7.0 0.00 0.00 0.00 81 1010.8
20260507013317 80 236 1.0 6.0 0.00 0.00 0.00 81 1010.7
20260507012813 80 282 1.0 6.0 0.00 0.00 0.00 80 1010.7
20260507012310 80 181 1.0 5.0 0.00 0.00 0.00 80 1010.8
20260507011807 80 221 0.0 7.0 0.00 0.00 0.00 80 1010.8
20260507011323 80 165 2.0 8.0 0.00 0.00 0.00 80 1010.8
20260507010817 80 70 1.0 8.0 0.00 0.00 0.00 79 1010.8
20260507010312 80 148 2.0 8.0 0.00 0.00 0.00 79 1010.7
20260507005808 81 101 2.0 8.0 0.00 0.00 0.00 79 1010.6
20260507005325 81 213 2.0 8.0 0.00 0.00 0.00 78 1010.7
20260507004836 81 254 3.0 8.0 0.00 0.00 0.00 78 1010.5
20260507004312 81 221 3.0 7.0 0.00 0.00 0.00 78 1010.6
20260507003808 81 150 2.0 7.0 0.00 0.00 0.00 78 1010.5
20260507003304 81 169 2.0 7.0 0.00 0.00 0.00 77 1010.5
20260507002815 81 157 2.0 7.0 0.00 0.00 0.00 77 1010.5
20260507002308 81 151 2.0 7.0 0.00 0.00 0.00 77 1010.4
20260507001824 81 119 2.0 9.0 0.00 0.00 0.00 76 1010.3
20260507001320 81 209 3.0 9.0 0.00 0.00 0.00 76 1010.4
20260507000817 82 207 2.0 8.0 0.00 0.00 0.00 76 1010.4
20260507000314 82 164 1.0 8.0 0.00 0.00 0.00 75 1010.4
20260506235830 82 205 3.0 9.0 0.00 0.00 0.00 75 1010.4
20260506235317 82 143 2.0 6.0 0.00 0.00 0.00 75 1010.3
20260506234813 82 150 2.0 8.0 0.00 0.00 0.00 75 1010.3
20260506233808 82 157 3.0 9.0 0.00 0.00 0.00 74 1010.4
20260506232819 83 194 2.0 11.0 0.00 0.00 0.00 73 1010.4
20260506232316 83 150 2.0 11.0 0.00 0.00 0.00 72 1010.3
20260506231812 83 167 3.0 10.0 0.00 0.00 0.00 72 1010.2
20260506231308 84 202 3.0 10.0 0.00 0.00 0.00 71 1010.3
20260506230825 84 171 2.0 6.0 0.00 0.00 0.00 71 1010.2
20260506230321 84 173 1.0 12.0 0.00 0.00 0.00 71 1010.1
20260506225816 84 235 3.0 12.0 0.00 0.00 0.00 71 1010.2
20260506225312 84 285 1.0 9.0 0.00 0.00 0.00 71 1010.3
20260506224809 84 196 4.0 10.0 0.00 0.00 0.00 70 1010.2
20260506224325 84 252 1.0 10.0 0.00 0.00 0.00 70 1010.3
20260506223820 84 189 4.0 10.0 0.00 0.00 0.00 69 1010.3
20260506223316 84 263 2.0 13.0 0.00 0.00 0.00 69 1010.4
20260506222810 84 184 5.0 13.0 0.00 0.00 0.00 68 1010.5
20260506222306 85 209 3.0 14.0 0.00 0.00 0.00 68 1010.5
20260506221822 85 220 3.0 15.0 0.00 0.00 0.00 67 1010.5
20260506221319 85 114 2.0 15.0 0.00 0.00 0.00 67 1010.6
20260506220816 86 200 3.0 13.0 0.00 0.00 0.00 66 1010.6
20260506220313 86 355 3.0 13.0 0.00 0.00 0.00 66 1010.6
20260506215809 87 236 4.0 11.0 0.00 0.00 0.00 65 1010.6
20260506215317 87 281 1.0 10.0 0.00 0.00 0.00 65 1010.7
20260506214814 87 153 2.0 10.0 0.00 0.00 0.00 66 1010.7
20260506214311 87 199 1.0 12.0 0.00 0.00 0.00 65 1010.6
20260506213806 87 149 1.0 12.0 0.00 0.00 0.00 64 1010.7
20260506213315 87 94 2.0 11.0 0.00 0.00 0.00 65 1010.7
20260506212811 87 214 2.0 11.0 0.00 0.00 0.00 65 1010.8
20260506212307 87 195 3.0 10.0 0.00 0.00 0.00 65 1010.8
20260506211845 86 269 2.0 13.0 0.00 0.00 0.00 65 1010.8
20260506211321 87 237 4.0 13.0 0.00 0.00 0.00 64 1010.9
20260506210817 88 223 4.0 11.0 0.00 0.00 0.00 63 1010.9
20260506210312 88 213 2.0 8.0 0.00 0.00 0.00 64 1010.9
20260506205808 87 193 1.0 7.0 0.00 0.00 0.00 66 1010.9
20260506205306 87 201 2.0 17.0 0.00 0.00 0.00 66 1010.9
20260506204822 87 171 5.0 17.0 0.00 0.00 0.00 66 1010.9
20260506204320 88 252 4.0 15.0 0.00 0.00 0.00 64 1011.0
20260506203815 89 169 4.0 10.0 0.00 0.00 0.00 63 1011.1
20260506203311 89 168 1.0 8.0 0.00 0.00 0.00 64 1011.2
20260506202808 89 206 2.0 10.0 0.00 0.00 0.00 64 1011.2
20260506202323 89 160 1.0 10.0 0.00 0.00 0.00 63 1011.2
20260506201819 89 56 0.0 10.0 0.00 0.00 0.00 63 1011.4
20260506201314 88 180 2.0 7.0 0.00 0.00 0.00 65 1011.4
20260506200832 88 190 1.0 7.0 0.00 0.00 0.00 64 1011.6
20260506200346 88 157 1.0 8.0 0.00 0.00 0.00 65 1011.7
20260506195841 87 203 2.0 11.0 0.00 0.00 0.00 65 1011.8
20260506195316 87 92 4.0 11.0 0.00 0.00 0.00 66 1011.9
20260506194832 87 255 3.0 7.0 0.00 0.00 0.00 65 1012.0
20260506194307 87 146 3.0 12.0 0.00 0.00 0.00 65 1012.1
20260506193324 87 101 3.0 9.0 0.00 0.00 0.00 65 1012.1
20260506192820 87 288 2.0 8.0 0.00 0.00 0.00 65 1012.3
20260506192316 87 222 2.0 8.0 0.00 0.00 0.00 67 1012.4
20260506191812 86 214 0.0 9.0 0.00 0.00 0.00 67 1012.5
20260506191307 86 201 1.0 9.0 0.00 0.00 0.00 67 1012.6
20260506190824 86 204 1.0 8.0 0.00 0.00 0.00 67 1012.6
20260506190320 86 236 3.0 9.0 0.00 0.00 0.00 67 1012.7
20260506185816 86 218 3.0 11.0 0.00 0.00 0.00 68 1012.8
20260506185313 85 193 2.0 11.0 0.00 0.00 0.00 68 1012.8
20260506184808 85 210 1.0 10.0 0.00 0.00 0.00 70 1012.8
20260506184324 85 182 2.0 10.0 0.00 0.00 0.00 69 1013.0
20260506183820 85 200 1.0 7.0 0.00 0.00 0.00 69 1013.0
20260506183316 85 155 1.0 7.0 0.00 0.00 0.00 69 1013.1
20260506182812 85 182 2.0 7.0 0.00 0.00 0.00 69 1013.2
20260506182307 85 219 1.0 16.0 0.00 0.00 0.00 69 1013.2
20260506181823 85 144 2.0 16.0 0.00 0.00 0.00 68 1013.1
20260506181320 86 194 1.0 10.0 0.00 0.00 0.00 69 1013.1
20260506180816 86 173 1.0 10.0 0.00 0.00 0.00 69 1013.0
20260506180312 85 164 1.0 9.0 0.00 0.00 0.00 70 1013.0
20260506175807 85 216 2.0 9.0 0.00 0.00 0.00 71 1013.0
20260506175323 84 196 1.0 10.0 0.00 0.00 0.00 71 1013.1
20260506174818 84 202 1.0 6.0 0.00 0.00 0.00 73 1013.3
20260506174312 83 200 2.0 9.0 0.00 0.00 0.00 73 1013.4
20260506173808 83 164 2.0 9.0 0.00 0.00 0.00 74 1013.4
20260506173305 83 224 2.0 9.0 0.00 0.00 0.00 77 1013.4
20260506172817 83 199 2.0 9.0 0.00 0.00 0.00 78 1013.5
20260506172325 82 163 2.0 4.0 0.00 0.00 0.00 79 1013.7
20260506171821 82 248 0.0 8.0 0.00 0.00 0.00 81 1013.7
20260506171318 82 192 3.0 8.0 0.00 0.00 0.00 79 1013.7
20260506170813 82 30 2.0 7.0 0.00 0.00 0.00 78 1013.8
20260506170309 82 173 2.0 7.0 0.00 0.00 0.00 76 1013.7
20260506165825 82 197 2.0 7.0 0.00 0.00 0.00 75 1013.7
20260506165341 82 225 0.0 7.0 0.00 0.00 0.00 76 1013.7
20260506164816 82 196 1.0 7.0 0.00 0.00 0.00 76 1013.6
20260506164313 82 179 1.0 5.0 0.00 0.00 0.00 75 1013.5
20260506163809 83 193 0.0 4.0 0.00 0.00 0.00 75 1013.5
20260506163325 82 233 0.0 8.0 0.00 0.00 0.00 75 1013.5
20260506162820 83 115 1.0 8.0 0.00 0.00 0.00 75 1013.4
20260506162315 83 139 2.0 12.0 0.00 0.00 0.00 76 1013.3
20260506161831 82 215 3.0 12.0 0.00 0.00 0.00 75 1013.1
20260506161305 82 230 3.0 11.0 0.00 0.00 0.00 75 1013.2
20260506160823 82 172 1.0 7.0 0.00 0.00 0.00 75 1013.2
20260506160318 82 157 0.0 15.0 0.00 0.00 0.00 75 1013.2
20260506155813 82 127 4.0 9.0 0.00 0.00 0.00 75 1013.2
20260506155310 82 71 0.0 5.0 0.00 0.00 0.00 76 1013.2
20260506154806 82 167 1.0 7.0 0.00 0.00 0.00 77 1013.2
20260506154323 82 171 1.0 8.0 0.00 0.00 0.00 78 1013.2
20260506153819 81 78 2.0 8.0 0.00 0.00 0.00 78 1013.1
20260506153314 81 69 2.0 8.0 0.00 0.00 0.00 78 1013.1
20260506152317 81 155 3.0 14.0 0.00 0.00 0.00 78 1012.9
20260506151813 81 200 2.0 11.0 0.00 0.00 0.00 79 1012.9
20260506151310 81 194 4.0 12.0 0.00 0.00 0.00 78 1013.0
20260506150825 81 225 3.0 7.0 0.00 0.00 0.00 79 1012.9
20260506145823 80 120 3.0 13.0 0.00 0.00 0.00 80 1013.0
20260506145316 80 113 4.0 13.0 0.00 0.00 0.00 80 1012.9
20260506144811 80 236 4.0 9.0 0.00 0.00 0.00 80 1012.9
20260506144308 80 221 2.0 6.0 0.00 0.00 0.00 81 1012.9
20260506143824 80 205 2.0 9.0 0.00 0.00 0.00 82 1013.0
20260506143339 79 184 4.0 11.0 0.00 0.00 0.00 81 1012.9
20260506142816 79 208 4.0 11.0 0.00 0.00 0.00 82 1012.8
20260506142311 79 218 3.0 8.0 0.00 0.00 0.00 82 1012.6
20260506141807 79 257 3.0 9.0 0.00 0.00 0.00 83 1012.6
20260506141324 79 173 4.0 9.0 0.00 0.00 0.00 83 1012.5
20260506140820 79 192 3.0 8.0 0.00 0.00 0.00 84 1012.5
20260506140316 78 125 2.0 8.0 0.00 0.00 0.00 84 1012.5
20260506135811 78 218 1.0 6.0 0.00 0.00 0.00 85 1012.4
20260506135308 78 88 1.0 4.0 0.00 0.00 0.00 86 1012.5
20260506134846 78 194 0.0 2.0 0.00 0.00 0.00 86 1012.6
20260506134342 77 122 1.0 3.0 0.00 0.00 0.00 87 1012.6
20260506133817 77 109 1.0 3.0 0.00 0.00 0.00 87 1012.6
20260506133312 77 116 1.0 5.0 0.00 0.00 0.00 87 1012.5
20260506132809 77 247 1.0 5.0 0.00 0.00 0.00 88 1012.6
20260506132324 76 196 1.0 4.0 0.00 0.00 0.00 88 1012.6
20260506131834 76 242 0.0 4.0 0.00 0.00 0.00 88 1012.5
20260506131310 76 165 0.0 3.0 0.00 0.00 0.00 88 1012.4
20260506130825 76 160 0.0 3.0 0.00 0.00 0.00 89 1012.4
20260506130342 76 159 0.0 3.0 0.00 0.00 0.00 89 1012.5
20260506125817 76 140 0.0 4.0 0.00 0.00 0.00 89 1012.6
20260506125313 76 214 0.0 3.0 0.00 0.00 0.00 89 1012.5
20260506124809 75 211 1.0 3.0 0.00 0.00 0.00 89 1012.5
20260506124306 75 170 0.0 3.0 0.00 0.00 0.00 89 1012.5
20260506123823 75 157 0.0 3.0 0.00 0.00 0.00 89 1012.3
20260506123320 75 152 0.0 3.0 0.00 0.00 0.00 89 1012.2
20260506122809 75 182 0.0 2.0 0.00 0.00 0.00 90 1012.2
20260506122306 75 153 0.0 1.0 0.00 0.00 0.00 90 1012.2
20260506121823 75 158 0.0 2.0 0.00 0.00 0.00 89 1012.1
20260506121319 75 121 0.0 2.0 0.00 0.00 0.00 90 1012.1
20260506120815 75 135 0.0 2.0 0.00 0.00 0.00 90 1012.0
20260506120310 75 131 0.0 5.0 0.00 0.00 0.00 89 1011.9
20260506115806 75 140 0.0 5.0 0.00 0.00 0.00 89 1011.9
20260506115323 75 98 0.0 1.0 0.00 0.00 0.00 89 1011.8
20260506114839 75 94 0.0 1.0 0.00 0.00 0.00 89 1011.8
20260506114315 75 173 0.0 0.0 0.00 0.00 0.00 89 1011.8
20260506113811 75 163 0.0 3.0 0.00 0.00 0.00 89 1011.8
20260506113308 75 123 0.0 4.0 0.00 0.00 0.00 89 1011.7
20260506112823 75 101 0.0 5.0 0.00 0.00 0.00 88 1011.7
20260506112340 75 213 1.0 6.0 0.00 0.00 0.00 88 1011.7
20260506111816 75 236 0.0 3.0 0.00 0.00 0.00 88 1011.6
20260506111313 75 155 0.0 3.0 0.00 0.00 0.00 88 1011.6
20260506110808 75 209 0.0 5.0 0.00 0.00 0.00 87 1011.6
20260506110324 75 227 2.0 5.0 0.00 0.00 0.00 87 1011.6
20260506105821 75 188 0.0 6.0 0.00 0.00 0.00 86 1011.5
20260506105333 75 188 0.0 6.0 0.00 0.00 0.00 86 1011.5
20260506104808 75 187 1.0 7.0 0.00 0.00 0.00 85 1011.5
20260506104323 75 172 1.0 7.0 0.00 0.00 0.00 85 1011.3
20260506103819 75 227 2.0 9.0 0.00 0.00 0.00 84 1011.2
20260506103315 75 191 3.0 9.0 0.00 0.00 0.00 84 1011.3
20260506102812 75 317 2.0 7.0 0.00 0.00 0.00 83 1011.3
20260506102308 75 176 2.0 7.0 0.00 0.00 0.00 83 1011.2
20260506101823 75 127 2.0 8.0 0.00 0.00 0.00 83 1011.2